Retour au catalogue

CRRES DEB

CANISTER

ActifHEO
NORAD 21634·DEBRIS·🇺🇸 United States

Lancé Jul 25, 1990 depuis Cape Canaveral Space Force Station

Loading…

Prochains Passages (prochaines 24 heures)

TLE

FraisSource: Space-Track

Époque: Sep 14, 2026, 09:53 UTC

1 21634U 90065L   26257.41229754  .00000773  00000-0  81630-3 0  9990
2 21634  17.6951 223.5612 6928370  20.3488 357.1886  2.69078017320595

Suivez CRRES DEB en temps réel avec AllMySat

Download on the App Store